1495378801.2,3237,16.5,74086.5,4.19,2.39,3.15,0,*4B
1495378802.45,3238,16.56,74098.3,4.21,2.09,2.81,0,*40
1495378803.67,3239,16.56,74086.8,4.19,2.09,2.77,0,*43
1495378804.92,3240,16.56,74084.3,4.17,2.05,2.77,0,*4F
1495378806.15,3241,16.5,74068.0,4.13,1.93,2.61,0,*41
1495378807.39,3242,16.56,74072.3,4.13,1.09,1.89,0,*44
1495378808.61,3243,16.5,74082.8,4.13,1.01,1.93,0,*46
1495378809.82,3244,16.56,74076.0,4.09,-1.33,0.43,0,*5A
1495378811.04,3245,16.5,74080.0,4.09,-3.19,1.59,0,*6B
1495378812.26,3246,16.56,74084.8,4.09,-4.49,1.97,0,*68
1495378813.49,3247,16.56,74076.5,4.07,-5.69,1.93,0,*60
1495378814.71,3248,16.56,74082.5,4.05,-5.61,1.83,0,*64
1495378815.97,3249,16.5,74080.0,4.05,-3.59,1.93,0,*69
1495378817.2,3250,16.5,74064.3,4.05,-1.71,1.59,0,*6F
1495378818.39,3251,16.56,74072.8,4.03,-0.89,1.75,0,*50
1495378819.65,3252,16.5,74076.3,4.01,-0.23,1.85,0,*5E
1495378820.89,3253,16.5,74066.8,4.01,0.41,2.09,0,*71
1495378822.14,3254,16.56,74048.0,4.01,1.17,2.59,0,*41
1495378823.38,3255,16.56,74092.3,4.01,0.75,1.89,0,*7B
1495378824.62,3256,16.56,74092.0,4.01,0.91,1.89,0,*72
1495378825.83,3257,16.5,74084.5,3.97,0.63,1.75,0,*75
1495378827.07,3258,16.56,74080.5,3.97,0.37,1.59,0,*75
1495378828.32,3259,16.5,74078.0,3.97,1.13,2.55,0,*4C
1495378829.57,3260,16.5,74080.0,3.97,1.25,2.55,0,*43
1495378830.8,3261,16.5,74082.5,3.97,1.47,2.91,0,*4E
1495378832.05,3262,16.5,74084.8,3.97,1.67,2.81,0,*4E
1495378833.3,3263,16.5,74072.8,3.97,1.59,2.69,0,*44
1495378834.52,3264,16.56,74064.5,3.97,1.83,2.81,0,*42
1495378835.78,3265,16.5,74086.5,3.97,1.47,2.43,0,*45
1495378836.99,3266,16.56,74078.8,3.95,1.67,2.65,0,*42
1495378838.24,3267,16.56,74072.5,3.95,2.05,3.11,0,*46
1495378839.45,3268,16.56,74078.0,3.95,1.93,2.91,0,*4C
1495378840.69,3269,16.56,74082.8,3.95,1.93,2.69,0,*4A
1495378841.94,3270,16.56,74084.3,3.95,1.93,2.77,0,*4D
1495378843.16,3271,16.56,74084.3,3.95,1.85,2.65,0,*48
1495378844.41,3272,16.5,74086.5,3.95,2.05,2.77,0,*43
1495378845.65,3273,16.56,74090.5,3.95,1.93,2.59,0,*42
1495378846.87,3274,16.56,74094.8,3.95,2.05,2.65,0,*46
1495378848.06,3275,16.56,74088.5,3.93,1.89,2.65,0,*46
1495378849.28,3276,16.5,74088.3,3.93,1.71,2.39,0,*4B
1495378850.49,3277,16.56,74098.3,3.95,1.67,2.31,0,*43
1495378851.7,3278,16.56,74094.3,3.93,1.67,2.25,0,*4F
1495378852.93,3279,16.56,74082.3,3.93,1.71,2.51,0,*4A
1495378854.14,3280,16.56,74088.8,3.89,1.89,2.69,0,*4B
1495378855.37,3281,16.56,74094.5,3.89,2.01,2.59,0,*4A
1495378856.58,3282,16.5,74084.3,3.87,1.67,2.31,0,*4A
1495378857.77,3283,16.56,74078.8,3.89,1.67,2.35,0,*41
1495378858.99,3284,16.56,74074.8,3.87,1.41,2.09,0,*43
1495378860.23,3285,16.5,74070.5,3.87,1.59,2.21,0,*41
1495378861.48,3286,16.5,74080.8,3.87,1.85,2.51,0,*44
1495378862.73,3287,16.56,74090.5,3.87,1.97,2.51,0,*46
1495378863.95,3288,16.56,74092.0,3.87,1.75,2.39,0,*4B
1495378865.17,3289,16.56,74078.8,3.83,1.63,2.35,0,*45
1495378866.34,3290,16.5,74086.5,3.85,1.75,2.35,0,*4C
1495378867.53,3291,16.5,74084.8,3.85,1.85,2.31,0,*46
1495378868.75,3292,16.5,74080.3,3.85,1.85,2.47,0,*44
1495378869.97,3293,16.5,74078.5,3.83,2.09,2.65,0,*44
1495378871.17,3294,16.56,74080.8,3.85,2.05,2.65,0,*49
1495378872.4,3295,16.5,74082.0,3.83,2.31,2.89,0,*4B
1495378873.61,3296,16.56,74090.0,3.83,2.27,2.69,0,*41
1495378874.85,3297,16.5,74076.3,3.83,1.93,2.47,0,*40
1495378876.11,3298,16.56,74080.0,3.83,1.85,2.43,0,*4C
1495378877.35,3299,16.5,74080.3,3.83,2.43,3.11,0,*42
1495378878.6,3300,16.5,74076.5,3.83,2.43,3.03,0,*40
1495378879.81,3301,16.5,74072.8,3.85,2.21,2.77,0,*41
1495378881.04,3302,16.56,74088.0,3.85,2.21,2.81,0,*4B
1495378882.26,3303,16.56,74076.5,3.83,2.27,2.89,0,*42
1495378883.45,3304,16.56,74072.5,3.83,2.35,2.99,0,*47
1495378884.65,3305,16.5,74074.8,3.85,2.43,2.91,0,*49
1495378885.87,3306,16.56,74086.5,3.85,2.43,3.11,0,*43
1495378887.06,3307,16.5,74084.3,3.85,2.65,3.37,0,*42
1495378888.28,3308,16.56,74078.8,3.85,2.55,3.19,0,*42
1495378889.49,3309,16.5,74074.5,3.85,2.55,3.19,0,*43
1495378890.71,3310,16.5,74076.3,3.85,2.55,3.15,0,*47
1495378891.94,3311,16.56,74086.8,3.85,2.69,3.41,0,*48
1495378893.18,3312,16.5,74068.0,3.87,2.73,3.45,0,*46
1495378894.42,3313,16.56,74074.8,3.87,2.39,3.07,0,*4F
1495378895.67,3314,16.56,74080.5,3.87,2.09,2.73,0,*49
1495378896.86,3315,16.56,74086.8,3.87,2.31,2.91,0,*4F
1495378898.08,3316,16.56,74078.5,3.89,2.47,3.23,0,*4B
1495378899.28,3317,16.56,74068.0,3.89,2.31,3.15,0,*4E
1495378900.51,3318,16.56,74072.3,3.89,1.13,2.69,0,*48
1495378901.68,3319,16.5,74078.0,3.89,1.05,2.95,0,*4D
1495378902.94,3320,16.56,74066.8,3.87,1.17,2.81,0,*4F
1495378904.19,3321,16.5,74074.3,3.87,1.37,2.85,0,*48
1495378905.38,3322,16.5,74066.3,3.89,1.67,2.95,0,*41
1495378906.6,3323,16.5,74080.0,3.87,1.85,2.95,0,*42
1495378907.8,3324,16.56,74078.8,3.89,2.01,2.95,0,*44
1495378909.04,3325,16.56,74074.0,3.87,2.13,3.03,0,*46
1495378910.26,3326,16.5,74074.5,3.95,1.59,2.65,0,*4A
1495378911.48,3327,16.5,74072.8,3.89,1.47,2.85,0,*47
1495378912.73,3328,16.5,74074.3,3.87,1.29,2.59,0,*4F
1495378913.96,3329,16.56,74072.5,3.89,1.25,2.47,0,*43
1495378915.18,3330,16.5,74074.8,3.87,1.79,2.81,0,*46
1495378916.41,3331,16.5,74082.0,3.89,1.67,2.81,0,*46
1495378917.63,3332,16.5,74080.8,3.89,1.25,2.73,0,*4E
1495378918.85,3333,16.5,74086.3,3.87,1.01,2.69,0,*4C
1495378920.09,3334,16.56,74094.3,3.87,1.25,2.69,0,*4D
1495378921.33,3335,16.56,74090.3,3.87,1.37,2.61,0,*47
1495378922.52,3336,16.56,74082.3,3.87,1.75,2.91,0,*4D
1495378923.74,3337,16.5,74086.5,3.87,2.35,3.15,0,*46
1495378924.96,3338,16.5,74096.0,3.89,2.59,3.23,0,*48
1495378926.15,3339,16.5,74094.5,3.87,2.31,2.95,0,*45
1495378927.38,3340,16.5,74090.3,3.89,2.13,2.81,0,*40
1495378928.62,3341,16.5,74092.8,3.87,2.13,2.85,0,*4B
1495378929.83,3342,16.5,74086.0,3.87,2.21,2.91,0,*4C
1495378931.06,3343,16.56,74090.5,3.89,2.09,2.81,0,*48
1495378932.3,3344,16.5,74088.0,3.87,1.47,2.25,0,*46
1495378933.54,3345,16.56,74088.3,3.87,2.09,2.81,0,*40
1495378934.77,3346,16.5,74084.5,3.87,1.89,2.61,0,*46
1495378935.98,3347,16.5,74094.0,3.87,1.51,2.31,0,*47
1495378937.19,3348,16.5,74088.5,3.87,1.51,2.31,0,*48
1495378938.37,3349,16.5,74090.8,3.87,1.41,2.31,0,*48
1495378939.63,3350,16.5,74092.0,3.87,1.37,2.47,0,*40
1495378940.85,3351,16.5,74092.3,3.85,1.47,2.43,0,*40
1495378942.05,3352,16.56,74098.5,3.85,1.85,2.65,0,*49
1495378943.25,3353,16.5,74096.8,3.85,2.17,2.91,0,*4B
1495378944.47,3354,16.5,74090.8,3.87,2.13,2.91,0,*4A
1495378945.68,3355,16.5,74098.0,3.87,2.21,2.91,0,*4A
1495378946.89,3356,16.5,74106.0,3.87,2.21,2.95,0,*4D
1495378948.1,3357,16.5,74094.8,3.87,1.89,2.95,0,*4D
1495378949.32,3358,16.5,74082.3,3.87,1.67,2.95,0,*42
1495378950.57,3359,16.5,74078.0,3.87,1.25,2.81,0,*40
1495378951.8,3360,16.56,74084.8,3.85,1.21,2.47,0,*46
1495378953.05,3361,16.56,74088.3,3.83,1.13,2.47,0,*40
1495378954.24,3362,16.56,74094.8,3.85,1.71,2.99,0,*42
1495378955.47,3363,16.5,74090.8,3.85,1.55,2.69,0,*4A
1495378956.68,3364,16.5,74088.3,3.85,1.47,2.47,0,*42
1495378957.88,3365,16.5,74092.3,3.85,1.37,2.27,0,*42
1495378959.1,3366,16.5,74086.0,3.85,1.43,2.55,0,*47
1495378960.29,3367,16.5,74068.3,3.85,0.79,2.31,0,*7C
1495378961.51,3368,16.5,74082.8,3.83,1.33,2.35,0,*4E
1495378962.75,3369,16.5,74066.5,3.83,1.47,2.47,0,*49
1495378964.0,3370,16.5,74060.0,3.83,1.55,2.47,0,*42
1495378965.23,3371,16.5,74088.0,3.83,0.75,2.05,0,*76
1495378966.44,3372,16.5,74092.0,3.83,0.41,2.35,0,*71
1495378967.66,3373,16.5,74094.0,3.83,-2.39,2.05,0,*63
1495378968.88,3374,16.5,74080.3,3.83,-5.51,0.87,0,*55
1495378970.13,3375,16.5,74076.3,3.83,-5.07,0.63,0,*5D
1495378971.35,3376,16.5,74054.8,3.83,-3.11,1.55,0,*6B
1495378972.54,3377,16.5,74070.0,3.85,-1.63,1.93,0,*61
1495378973.73,3378,16.5,74066.0,3.83,-0.77,2.27,0,*50
1495378974.97,3379,16.5,74064.5,3.83,0.63,2.43,0,*7B
1495378976.19,3380,16.56,74064.8,3.85,1.47,2.69,0,*44
1495378977.4,3381,16.5,74060.8,3.83,1.47,2.35,0,*4A
1495378978.61,3382,16.56,74080.3,3.83,1.59,2.31,0,*42
1495378979.86,3383,16.5,74100.5,3.83,1.97,2.59,0,*4F
1495378981.11,3384,16.5,74066.0,3.83,1.33,1.93,0,*43
1495378982.3,3385,16.5,74056.5,3.81,1.51,2.27,0,*48
1495378983.49,3386,16.5,74068.0,3.81,1.83,2.55,0,*41
1495378984.73,3387,16.5,74076.5,3.79,1.67,2.39,0,*47
1495378985.94,3388,16.5,74066.0,3.81,0.75,1.55,0,*74
1495378987.18,3389,16.5,74084.8,3.79,0.33,1.37,0,*74
1495378988.38,3390,16.5,74082.8,3.79,0.67,1.79,0,*77
1495378989.6,3391,16.5,74084.3,3.79,0.71,1.75,0,*7D
1495378990.8,3392,16.5,74082.0,3.77,0.29,1.89,0,*7E
1495378991.99,3393,16.5,74084.0,3.77,0.21,2.27,0,*70
1495378993.16,3394,16.56,74096.0,3.77,-0.07,2.61,0,*6C
1495378994.39,3395,16.5,74074.0,3.75,0.47,2.59,0,*7D
1495378995.58,3396,16.5,74082.3,3.77,0.51,2.27,0,*72
1495378996.77,3397,16.5,74080.0,3.77,-0.33,2.25,0,*58
1495378997.97,3398,16.5,74084.8,3.77,-0.29,1.85,0,*55
1495378999.15,3399,16.5,74088.5,3.77,-0.61,1.63,0,*50
1495379000.34,3400,16.5,74086.3,3.77,-0.53,1.89,0,*52
1495379001.55,3401,16.5,74080.8,3.77,-1.17,2.25,0,*67
1495379002.78,3402,16.5,74084.3,3.77,-1.39,2.13,0,*6D
1495379003.98,3403,16.5,74084.3,3.77,-1.21,2.25,0,*60
1495379005.18,3404,16.5,74078.0,3.77,-0.19,2.47,0,*59
1495379006.35,3405,16.5,74084.3,3.77,-0.53,2.35,0,*53
1495379007.55,3406,16.5,74084.3,3.77,-0.53,2.39,0,*5C
1495379008.76,3407,16.5,74088.3,3.79,0.05,2.39,0,*4D
1495379009.98,3408,16.5,74092.5,3.79,-0.19,1.97,0,*55
1495379011.2,3409,16.5,74092.8,3.79,-0.41,2.09,0,*5D
1495379012.38,3410,16.5,74096.3,3.77,-1.67,1.79,0,*6A
1495379013.58,3411,16.5,74098.3,3.77,-2.31,2.01,0,*67
1495379014.78,3412,16.5,74094.5,3.77,-2.71,2.27,0,*64
1495379015.98,3413,16.56,74094.8,3.77,-2.19,2.39,0,*64
1495379017.23,3414,16.5,74090.8,3.79,-1.83,2.39,0,*6D
1495379018.48,3415,16.5,74092.3,3.79,-1.83,2.47,0,*65
1495379019.74,3416,16.5,74090.8,3.79,-1.05,2.39,0,*61
1495379020.93,3417,16.5,74084.3,3.77,0.29,2.61,0,*71
1495379022.18,3418,16.5,74080.0,3.79,0.83,2.59,0,*7B
1495379023.42,3419,16.5,74078.3,3.79,1.67,3.03,0,*4F
1495379024.67,3420,16.5,74078.5,3.79,2.13,3.11,0,*46
1495379025.92,3421,16.5,74080.8,3.79,2.51,3.33,0,*41
1495379027.17,3422,16.5,74076.3,3.79,2.59,3.33,0,*4A
1495379028.39,3423,16.5,74072.3,3.79,2.61,3.33,0,*40
1495379029.64,3424,16.5,74078.0,3.79,2.69,3.33,0,*4F
1495379030.89,3425,16.5,74074.3,3.79,2.59,3.11,0,*4D
1495379032.11,3426,16.5,74076.3,3.81,2.43,3.11,0,*42
1495379033.34,3427,16.5,74068.3,3.81,2.17,2.89,0,*42
1495379034.56,3428,16.5,74056.5,3.81,2.25,2.89,0,*4C
1495379035.73,3429,16.5,74060.3,3.81,2.27,2.95,0,*42
1495379036.93,3430,16.5,74056.3,3.81,1.79,2.43,0,*49
1495379038.15,3431,16.5,74074.3,3.79,1.79,2.39,0,*42
1495379039.38,3432,16.56,74056.8,3.81,2.01,2.77,0,*40
1495379040.63,3433,16.5,74058.5,3.79,1.55,2.47,0,*47
1495379041.85,3434,16.56,74070.0,3.79,1.55,2.35,0,*45
1495379043.07,3435,16.5,74068.0,3.79,1.75,2.59,0,*4C
1495379044.32,3436,16.5,74068.8,3.79,1.63,2.39,0,*4E
1495379045.57,3437,16.5,74072.3,3.79,1.97,2.69,0,*41
1495379046.76,3438,16.5,74072.5,3.77,1.67,2.27,0,*45
1495379047.97,3439,16.5,74072.3,3.79,1.51,2.35,0,*4C
1495379049.21,3440,16.5,74090.0,3.79,0.63,2.13,0,*76
1495379050.46,3441,16.5,74082.0,3.79,-1.83,2.01,0,*66
1495379051.7,3442,16.5,74072.8,3.79,0.51,2.39,0,*7D
1495379052.92,3443,16.5,74078.5,3.79,0.05,2.59,0,*4B
1495379054.15,3444,16.5,74078.0,3.79,0.67,2.39,0,*7E
1495379055.37,3445,16.5,74070.0,3.79,1.25,2.35,0,*44
1495379056.59,3446,16.5,74080.5,3.77,1.25,2.47,0,*4C
1495379057.82,3447,16.5,74074.5,3.77,1.63,3.03,0,*4E
1495379059.04,3448,16.5,74076.0,3.77,1.85,3.03,0,*49
1495379060.27,3449,16.5,74074.0,3.77,1.97,2.81,0,*40
1495379061.52,3450,16.5,74078.0,3.79,1.97,2.81,0,*46
1495379062.75,3451,16.5,74076.8,3.79,2.27,3.03,0,*44
1495379063.99,3452,16.5,74072.8,3.79,2.59,3.23,0,*4C
1495379065.19,3453,16.5,74076.3,3.79,2.35,2.95,0,*4B
1495379066.41,3454,16.5,74074.5,3.79,2.35,3.03,0,*42
1495379067.66,3455,16.5,74070.8,3.79,2.39,3.03,0,*4F
1495379068.88,3456,16.5,74064.3,3.81,2.25,2.77,0,*44
1495379070.1,3457,16.5,74070.0,3.79,2.27,2.85,0,*4D
1495379071.34,3458,16.5,74072.5,3.79,2.21,2.73,0,*4D
1495379072.58,3459,16.5,74072.8,3.79,2.21,2.69,0,*47
1495379073.77,3460,16.5,74072.3,3.79,1.79,2.35,0,*4A
1495379075.02,3461,16.5,74064.8,3.79,2.09,2.69,0,*46
1495379076.24,3462,16.5,74070.5,3.79,2.27,2.81,0,*4F
1495379077.44,3463,16.5,74072.8,3.81,2.27,2.73,0,*44
1495379078.69,3464,16.5,74062.5,3.79,1.67,2.13,0,*45
1495379079.91,3465,16.56,74048.5,3.77,1.37,1.89,0,*4F
1495379081.12,3466,16.5,74048.3,3.77,1.67,2.21,0,*48
1495379082.34,3467,16.5,74034.5,3.77,1.89,2.39,0,*40
1495379083.56,3468,16.5,74060.5,3.75,1.71,2.31,0,*42
1495379084.8,3469,16.5,74050.5,3.75,1.25,2.09,0,*49
1495379086.02,3470,16.5,74038.0,3.75,1.63,2.31,0,*48
1495379087.23,3471,16.5,74048.8,3.75,1.63,2.31,0,*49
1495379088.42,3472,16.5,74056.0,3.75,1.75,2.35,0,*49
1495379089.64,3473,16.5,74056.8,3.75,1.47,2.31,0,*4D
1495379090.88,3474,16.5,74058.0,3.75,1.63,2.43,0,*49
1495379092.13,3475,16.5,74062.5,3.75,1.97,2.55,0,*44
1495379093.38,3476,16.5,74068.5,3.71,2.17,2.73,0,*4C
1495379094.58,3477,16.5,74060.0,3.73,2.31,2.89,0,*4E
1495379095.75,3478,16.5,74072.8,3.73,2.35,2.91,0,*4C
1495379096.95,3479,16.5,74060.3,3.73,2.31,2.77,0,*41
1495379098.15,3480,16.5,74052.5,3.73,1.93,2.35,0,*4A
1495379099.37,3481,16.5,74052.3,3.73,2.09,2.59,0,*41
1495379100.62,3482,16.5,74052.3,3.75,1.93,2.47,0,*4B
1495379101.84,3483,16.5,74058.8,3.73,2.05,2.47,0,*40
1495379103.06,3484,16.5,74060.8,3.75,2.31,2.89,0,*44
1495379104.28,3485,16.5,74062.5,3.75,2.35,2.89,0,*41
1495379105.5,3486,16.5,74058.3,3.73,2.21,2.77,0,*40
1495379106.72,3487,16.5,74058.3,3.73,2.21,2.59,0,*4D
1495379107.92,3488,16.5,74064.0,3.73,1.93,2.35,0,*42
1495379109.14,3489,16.5,74062.3,3.73,2.09,2.47,0,*46
1495379110.34,3490,16.5,74064.8,3.73,1.75,2.25,0,*42
1495379111.55,3491,16.5,74086.3,3.71,1.89,2.31,0,*47
1495379112.75,3492,16.5,74078.3,3.73,2.01,2.31,0,*45
1495379113.97,3493,16.5,74066.8,3.73,2.01,2.47,0,*45
1495379115.19,3494,16.5,74078.5,3.75,2.21,2.65,0,*46
1495379116.36,3495,16.5,74074.3,3.73,2.35,2.91,0,*4F
1495379117.58,3496,16.5,74066.3,3.71,2.31,2.77,0,*42
1495379118.81,3497,16.5,74042.3,3.73,1.93,2.43,0,*4D
1495379119.98,3498,16.5,74038.8,3.73,1.75,2.35,0,*4B
1495379121.23,3499,16.5,74056.0,3.71,1.71,2.17,0,*4C
1495379122.47,3500,16.5,74062.0,3.71,1.43,1.89,0,*48
1495379123.66,3501,16.5,74042.0,3.71,1.79,2.27,0,*47
1495379124.91,3502,16.5,74042.8,3.67,1.55,2.09,0,*41
1495379126.18,3503,16.5,74054.8,3.67,1.37,1.85,0,*43
1495379127.4,3504,16.5,74066.3,3.65,1.43,1.85,0,*45
1495379128.64,3505,16.5,74074.0,3.65,1.37,1.85,0,*47
1495379129.87,3506,16.5,74056.5,3.65,1.43,2.01,0,*48
1495379131.09,3507,16.5,74042.5,3.65,1.25,1.67,0,*4A
1495379132.28,3508,16.5,74044.8,3.65,1.41,1.89,0,*47
1495379133.47,3509,16.5,74052.5,3.63,1.01,1.59,0,*49
1495379134.69,3510,16.5,74046.0,3.63,1.51,2.05,0,*4E
1495379135.92,3511,16.5,74046.8,3.63,1.63,2.13,0,*49
1495379137.11,3512,16.5,74052.0,3.61,1.83,2.31,0,*46
1495379138.3,3513,16.5,74048.5,3.63,1.83,2.25,0,*40
1495379139.54,3514,16.5,74052.5,3.61,1.59,2.05,0,*40
1495379140.76,3515,16.5,74058.5,3.61,1.75,2.21,0,*49
1495379142.01,3516,16.5,74062.3,3.61,1.71,2.05,0,*48
1495379143.25,3517,16.5,74060.5,3.61,1.47,1.85,0,*47
1495379144.51,3518,16.5,74068.3,3.61,1.37,1.85,0,*4F
1495379145.76,3519,16.5,74072.3,3.61,1.71,2.25,0,*45
1495379146.98,3520,16.5,74070.3,3.59,1.55,2.09,0,*4C
1495379148.18,3521,16.5,74072.5,3.59,1.67,2.27,0,*40
1495379149.42,3522,16.5,74078.3,3.57,1.51,2.05,0,*48
1495379150.64,3523,16.5,74074.8,3.59,1.67,2.21,0,*44
1495379151.86,3524,16.5,74086.8,3.59,1.67,2.21,0,*43
1495379153.07,3525,16.5,74082.8,3.59,1.47,2.21,0,*40
1495379154.27,3526,16.5,74084.8,3.59,1.83,2.51,0,*4C
1495379155.53,3527,16.5,74086.0,3.57,1.85,2.51,0,*45
1495379156.79,3528,16.5,74090.3,3.57,1.85,2.39,0,*44
1495379157.99,3529,16.5,74092.5,3.59,1.55,2.31,0,*4E
1495379159.18,3530,16.5,74080.3,3.59,1.67,2.31,0,*47
1495379160.43,3531,16.5,74078.3,3.57,1.67,2.17,0,*4C
1495379161.66,3532,16.5,74076.5,3.57,1.85,2.35,0,*43
1495379162.88,3533,16.5,74078.0,3.59,2.01,2.51,0,*41
1495379164.11,3534,16.5,74078.5,3.57,1.97,2.35,0,*46
1495379165.34,3535,16.5,74080.3,3.57,1.97,2.27,0,*44
1495379166.56,3536,16.5,74076.8,3.59,2.17,2.55,0,*47
1495379167.82,3537,16.5,74074.5,3.57,1.97,2.47,0,*40
1495379169.04,3538,16.5,74074.0,3.59,2.09,2.51,0,*42
1495379170.26,3539,16.5,74070.3,3.59,2.05,2.39,0,*41
1495379171.49,3540,16.5,74066.5,3.57,1.97,2.35,0,*45
1495379172.71,3541,16.5,74070.0,3.59,2.09,2.55,0,*48
1495379173.94,3542,16.5,74070.0,3.59,2.17,2.55,0,*44
1495379175.17,3543,16.5,74070.0,3.57,1.97,2.35,0,*46
1495379176.4,3544,16.5,74064.5,3.57,1.75,2.17,0,*4D
1495379177.62,3545,16.5,74082.3,3.59,2.01,2.39,0,*4E
1495379178.84,3546,16.5,74090.8,3.57,1.89,2.27,0,*4F
1495379180.09,3547,16.5,74082.5,3.57,1.85,2.21,0,*44
1495379181.28,3548,16.5,74080.0,3.59,1.93,2.31,0,*43
1495379182.51,3549,16.5,74084.5,3.59,1.93,2.39,0,*4A
1495379183.76,3550,16.5,74082.5,3.57,2.05,2.51,0,*4E
1495379185.01,3551,16.5,74082.5,3.57,2.01,2.47,0,*4C
1495379186.27,3552,16.5,74078.3,3.57,2.25,2.81,0,*43
1495379187.49,3553,16.5,74084.5,3.59,2.39,2.85,0,*45
1495379188.68,3554,16.5,74080.0,3.61,2.35,2.95,0,*44
1495379189.88,3555,16.5,74078.0,3.59,2.27,2.89,0,*40
1495379191.1,3556,16.5,74090.8,3.59,2.43,2.85,0,*4D
1495379192.32,3557,16.5,74084.8,3.61,2.77,3.25,0,*4B
1495379193.57,3558,16.5,74090.8,3.61,2.59,3.07,0,*48
1495379194.79,3559,16.5,74084.3,3.61,2.91,3.49,0,*47
1495379195.99,3560,16.5,74088.5,3.63,2.89,3.29,0,*40
1495379197.23,3561,16.5,74070.8,3.61,2.69,3.19,0,*4E
1495379198.45,3562,16.5,74076.0,3.63,2.55,3.07,0,*4F
1495379199.65,3563,16.5,74078.5,3.65,2.73,3.29,0,*40
1495379200.9,3564,16.5,74086.5,3.67,2.81,3.41,0,*46
1495379202.13,3565,16.5,74082.0,3.67,3.11,3.55,0,*4A
1495379203.35,3566,16.5,74086.5,3.71,3.11,3.55,0,*4E
1495379204.55,3567,16.5,74088.0,3.73,2.91,3.49,0,*49
1495379205.77,3568,16.5,74080.8,3.73,2.69,3.37,0,*48
1495379206.97,3569,16.5,74076.8,3.73,2.99,3.71,0,*44
1495379208.21,3570,16.5,74080.3,3.75,3.19,3.75,0,*47
1495379209.41,3571,16.5,74086.0,3.81,3.33,3.81,0,*4E
1495379210.6,3572,16.5,74084.3,3.77,3.03,3.55,0,*4E
1495379211.85,3573,16.5,74078.3,3.79,3.19,3.75,0,*48
1495379213.05,3574,16.5,74088.3,3.81,3.07,3.59,0,*49
1495379214.21,3575,16.5,74096.0,3.81,2.99,3.55,0,*42
1495379215.43,3576,16.5,74090.0,3.83,2.69,3.29,0,*47
1495379216.68,3577,16.5,74090.8,3.83,2.47,3.15,0,*45
1495379217.92,3578,16.5,74086.5,3.83,2.43,3.19,0,*42
1495379219.09,3579,16.5,74086.0,3.85,2.91,3.63,0,*47
1495379220.31,3580,16.5,74090.0,3.83,2.99,3.71,0,*4C
1495379221.51,3581,16.5,74084.5,3.85,3.15,3.81,0,*41
1495379222.71,3582,16.5,74088.3,3.87,2.91,3.55,0,*44
1495379223.95,3583,16.5,74080.5,3.87,3.03,3.67,0,*4E
1495379225.17,3584,16.5,74082.0,3.87,2.59,3.29,0,*4D
1495379226.41,3585,16.5,74080.3,3.87,2.59,3.19,0,*4F
1495379227.6,3586,16.5,74082.8,3.87,2.91,3.55,0,*40
1495379228.83,3587,16.5,74080.0,3.89,3.15,3.79,0,*4C
1495379230.03,3588,16.5,74074.5,3.89,3.23,3.85,0,*45
1495379231.24,3589,16.5,74070.8,3.89,2.69,3.23,0,*47
1495379232.48,3590,16.5,74080.3,3.87,2.59,3.23,0,*42
1495379233.68,3591,16.5,74086.8,3.89,2.91,3.53,0,*4E
1495379234.91,3592,16.5,74084.3,3.89,3.15,3.67,0,*47
1495379236.14,3593,16.5,74082.5,3.89,2.81,3.41,0,*4E
1495379237.33,3594,16.5,74084.3,3.89,2.61,3.19,0,*4A
1495379238.52,3595,16.5,74078.8,3.89,2.73,3.29,0,*4B
1495379239.76,3596,16.5,74076.8,3.89,2.81,3.41,0,*4B
1495379240.97,3597,16.5,74078.5,3.89,2.73,3.19,0,*4A
1495379242.18,3598,16.5,74084.8,3.93,2.89,3.37,0,*47
1495379243.35,3599,16.5,74082.0,3.93,2.99,3.55,0,*43
1495379244.53,3600,16.5,74084.3,3.93,2.61,3.23,0,*46
1495379245.75,3601,16.5,74086.8,3.93,2.85,3.33,0,*4C
1495379246.91,3602,16.5,74088.5,3.93,2.99,3.55,0,*42
1495379248.16,3603,16.5,74084.5,3.95,2.89,3.41,0,*41
1495379249.37,3604,16.5,74084.5,3.95,2.69,3.25,0,*4A
1495379250.61,3605,16.5,74088.8,3.95,2.59,3.23,0,*4E
1495379251.8,3606,16.5,74086.8,3.93,2.61,3.19,0,*49
1495379252.99,3607,16.5,74076.5,3.93,2.77,3.25,0,*40
1495379254.23,3608,16.5,74084.8,3.95,2.69,3.37,0,*45
1495379255.48,3609,16.5,74076.0,3.95,2.77,3.41,0,*4A
1495379256.69,3610,16.5,74074.0,3.93,2.55,3.19,0,*49
1495379257.88,3611,16.5,74082.8,3.95,2.31,2.99,0,*45
1495379259.12,3612,16.5,74082.3,3.95,2.55,3.23,0,*44
1495379260.36,3613,16.5,74088.8,3.95,2.47,3.23,0,*46
1495379261.61,3614,16.5,74076.5,3.95,2.39,3.03,0,*4A
1495379262.8,3615,16.5,74070.0,3.95,2.27,2.99,0,*46
1495379264.06,3616,16.5,74056.5,3.97,2.17,2.89,0,*45
1495379265.3,3617,16.5,74060.5,3.95,1.71,2.39,0,*4E
1495379266.52,3618,16.5,74064.8,3.95,1.75,2.43,0,*48
1495379267.74,3619,16.5,74058.5,3.93,2.43,3.11,0,*4F
1495379268.96,3620,16.5,74056.3,3.93,2.43,3.11,0,*45
1495379270.16,3621,16.5,74050.5,3.93,2.27,2.89,0,*46
1495379271.37,3622,16.5,74052.5,3.93,2.01,2.55,0,*40
1495379272.56,3623,16.5,74060.0,3.93,2.39,2.95,0,*46
1495379273.78,3624,16.5,74072.0,3.95,2.31,2.89,0,*42
1495379275.01,3625,16.5,74072.3,3.89,2.13,2.69,0,*40
1495379276.22,3626,16.5,74064.8,3.89,2.21,2.73,0,*49
1495379277.43,3627,16.5,74054.0,3.89,1.37,1.79,0,*45
1495379278.65,3628,16.5,74050.5,3.89,1.59,2.13,0,*4D
1495379279.91,3629,16.5,74054.8,3.87,1.97,2.51,0,*46
1495379281.12,3630,16.5,74046.3,3.89,1.63,2.21,0,*4C
1495379282.36,3631,16.5,74046.0,3.85,1.33,1.85,0,*49
1495379283.59,3632,16.5,74050.0,3.85,1.37,1.85,0,*4E
1495379284.83,3633,16.5,74064.0,3.83,1.55,2.09,0,*4A
1495379286.06,3634,16.5,74054.0,3.83,1.75,2.43,0,*41
1495379287.3,3635,16.5,74060.8,3.83,1.59,2.17,0,*4F
1495379288.51,3636,16.5,74052.3,3.83,1.71,2.31,0,*42
1495379289.73,3637,16.5,74032.5,3.83,1.83,2.43,0,*4B
1495379290.96,3638,16.5,74068.3,3.81,1.63,2.17,0,*49
1495379292.17,3639,16.5,74084.0,3.81,1.59,2.25,0,*40
1495379293.39,3640,16.5,74048.3,3.81,0.87,1.59,0,*74
1495379294.64,3641,16.5,74036.5,3.79,1.29,2.09,0,*41
1495379295.86,3642,16.5,74038.8,3.79,1.67,2.35,0,*47
1495379297.06,3643,16.5,74058.0,3.81,1.17,1.83,0,*48
1495379298.25,3644,16.5,74058.3,3.77,1.63,2.27,0,*48
1495379299.45,3645,16.5,74046.0,3.77,1.63,2.27,0,*49
1495379300.67,3646,16.5,74044.5,3.77,1.97,2.51,0,*40
1495379301.92,3647,16.5,74036.3,3.75,1.85,2.43,0,*43
1495379303.09,3648,16.5,74046.0,3.77,1.75,2.35,0,*40
1495379304.32,3649,16.5,74066.5,3.77,1.85,2.39,0,*42
1495379305.54,3650,16.5,74016.5,3.77,1.63,2.25,0,*4F
1495379306.76,3651,16.5,74016.5,3.77,1.85,2.39,0,*4B
1495379307.98,3652,16.5,74024.5,3.75,1.01,1.59,0,*43
1495379309.2,3653,16.5,74050.3,3.75,1.71,2.35,0,*4C
1495379310.41,3654,16.5,74054.5,3.75,1.59,2.31,0,*45
1495379311.66,3655,16.5,74040.3,3.75,1.33,2.05,0,*4F
1495379312.9,3656,16.5,74020.3,3.75,1.47,2.17,0,*4C
1495379314.14,3657,16.5,74018.3,3.75,1.63,2.21,0,*4E
1495379315.34,3658,16.5,74044.5,3.73,1.01,1.47,0,*40
1495379316.55,3659,16.5,74032.3,3.71,0.97,1.47,0,*7D
1495379317.79,3660,16.5,74024.3,3.71,0.75,1.21,0,*7B
1495379319.01,3661,16.5,74004.5,3.67,1.01,1.51,0,*48
1495379320.25,3662,16.5,74020.8,3.65,1.29,1.97,0,*49
1495379321.48,3663,16.5,74012.3,3.65,1.13,1.85,0,*42
1495379322.68,3664,16.5,74030.8,3.65,1.05,1.63,0,*4A
1495379323.89,3665,16.5,74042.5,3.63,1.13,1.83,0,*44
1495379325.13,3666,16.5,74036.8,3.65,1.13,2.17,0,*4F
1495379326.33,3667,16.5,74036.3,3.63,0.91,1.75,0,*74
1495379327.54,3668,16.5,74042.0,3.63,0.13,1.09,0,*7A
1495379328.75,3669,16.5,74046.0,3.63,0.41,1.33,0,*75
1495379329.98,3670,16.5,74028.8,3.61,0.67,1.37,0,*7F
1495379331.19,3671,16.5,74054.8,3.63,0.51,0.63,0,*49
1495379332.4,3672,16.5,74050.0,3.63,0.75,1.09,0,*71
1495379333.61,3673,16.5,74026.0,3.63,0.41,1.33,0,*7E
1495379334.82,3674,16.5,74024.8,3.63,0.63,1.51,0,*7D
1495379336.03,3675,16.5,74026.0,3.63,0.37,1.37,0,*7D
1495379337.26,3676,16.5,74024.8,3.63,-2.55,1.09,0,*68
1495379338.46,3677,16.5,74034.8,3.63,-4.09,1.63,0,*6A
1495379339.65,3678,16.5,74056.8,3.63,-3.23,1.71,0,*69
1495379340.87,3679,16.5,74062.3,3.61,-2.87,1.47,0,*60
1495379342.07,3680,16.5,74070.3,3.63,-2.83,0.91,0,*5A
1495379343.31,3681,16.5,74056.8,3.61,-5.31,0.67,0,*5E
1495379344.52,3682,16.5,74064.3,3.59,-6.81,0.75,0,*5D
1495379345.71,3683,16.5,74060.5,3.59,-6.63,0.43,0,*55
1495379346.9,3684,16.5,74060.8,3.59,-6.43,-0.41,0,*7F
1495379348.13,3685,16.5,74060.8,3.57,-6.27,-0.15,0,*73
1495379349.36,3686,16.5,74072.3,3.57,-3.07,0.21,0,*5D
1495379350.58,3687,16.5,74068.0,3.53,-6.85,-0.37,0,*7D